Bg Felixstowe — V2BR7 — position and weather

sailwx.info

Track history (hours):
 
Tides and Currents Weather Stations Pressure Air Temp Water Temp Dewpoint Dewpoint Depression Visibility Wind Speed Wind Dir Waves Ship Positions

Bg Felixstowe

Last reported at 2014-Jul-21 00:33 UTC. Time now 2014-Jul-23 18:04 UTC.
Position N 25°32' W 080°00'.

Length 139 m; draft 6.9 m.

Type: Cargo ship. MMSI: 304906000.

Date/timePositionNaut miles runAvg speedWind from/ knotsBaromVisibWave heightAir tempDewpointWater temp
2014-Jul-21 00:33N 25°32' W 080°00'1211.8
2014-Jul-20 23:33N 25°43' W 080°04'7 6.6
2014-Jul-20 22:34N 25°46' W 080°10'0 0.0
2014-Jul-20 21:18N 25°46' W 080°10'0 0.0
2014-Jul-20 20:27N 25°46' W 080°10'0 0.0
2014-Jul-20 19:20N 25°46' W 080°10'0 0.0
2014-Jul-20 18:26N 25°46' W 080°10'0 0.0
2014-Jul-20 17:31N 25°46' W 080°10'0 0.0
2014-Jul-20 16:31N 25°46' W 080°10'0 0.0
2014-Jul-20 14:30N 25°46' W 080°10'0 0.0
2014-Jul-20 12:29N 25°46' W 080°10'0 0.0
2014-Jul-20 11:33N 25°46' W 080°10'5 5.2
2014-Jul-20 10:33N 25°46' W 080°04'1514.0
2014-Jul-20 09:29N 25°31' W 079°60'  
2014-Jul-14 00:30N 25°30' W 080°00'1112.1
2014-Jul-13 23:33N 25°42' W 080°02'8 8.1
2014-Jul-13 22:33N 25°46' W 080°10'0 0.0
2014-Jul-13 15:08N 25°46' W 080°10'0 0.0
2014-Jul-13 14:31N 25°46' W 080°10'0 0.0
2014-Jul-13 11:21N 25°46' W 080°10'5 6.5
2014-Jul-13 10:33N 25°45' W 080°04'  
Track history (hours):
 
Tides and Currents Weather Stations Pressure Air Temp Water Temp Dewpoint Dewpoint Depression Visibility Wind Speed Wind Dir Waves Ship Positions

Bg Felixstowe

Last reported at 2014-Jul-21 00:33 UTC. Time now 2014-Jul-23 18:04 UTC.
Position N 25°32' W 080°00'.

Length 139 m; draft 6.9 m.

Type: Cargo ship. MMSI: 304906000.

Date/timePositionNaut miles runAvg speedWind from/ knotsBaromVisibWave heightAir tempDewpointWater temp
2014-Jul-21 00:33N 25°32' W 080°00'1211.8
2014-Jul-20 23:33N 25°43' W 080°04'7 6.6
2014-Jul-20 22:34N 25°46' W 080°10'0 0.0
2014-Jul-20 21:18N 25°46' W 080°10'0 0.0
2014-Jul-20 20:27N 25°46' W 080°10'0 0.0
2014-Jul-20 19:20N 25°46' W 080°10'0 0.0
2014-Jul-20 18:26N 25°46' W 080°10'0 0.0
2014-Jul-20 17:31N 25°46' W 080°10'0 0.0
2014-Jul-20 16:31N 25°46' W 080°10'0 0.0
2014-Jul-20 14:30N 25°46' W 080°10'0 0.0
2014-Jul-20 12:29N 25°46' W 080°10'0 0.0
2014-Jul-20 11:33N 25°46' W 080°10'5 5.2
2014-Jul-20 10:33N 25°46' W 080°04'1514.0
2014-Jul-20 09:29N 25°31' W 079°60'  
2014-Jul-14 00:30N 25°30' W 080°00'1112.1
2014-Jul-13 23:33N 25°42' W 080°02'8 8.1
2014-Jul-13 22:33N 25°46' W 080°10'0 0.0
2014-Jul-13 15:08N 25°46' W 080°10'0 0.0
2014-Jul-13 14:31N 25°46' W 080°10'0 0.0
2014-Jul-13 11:21N 25°46' W 080°10'5 6.5
2014-Jul-13 10:33N 25°45' W 080°04'  

Dump ship's entire track history